Delta Virtual Airport Information Service

Beijing Capital International Airport

ICAO: ZBAA Country: China
Latitude: 40.0801 Longitude: 116.585
Latest Arrival : DAL6661911 (EGKK-ZBAA) Latest Departure : SIA805 (ZBAA-WSSS)


WX CaptureLIVE
Data provided by noaa.gov | Fetched at 07:55:15

METAR : ZBAA 301330Z 34001MPS CAVOK M04/M10 Q1040 NOSIG

TAF : ZBAA 300901Z 3012/0112 02004MPS CAVOK TX05/0107Z TNM06/3021Z


Runway Data for ZBAA
Data provided by openaviationdata.com

Runway ID Mag Var Hdg Length Elevation Surface ILS Freq ILS Id ILS Slope
18L -6 179° 12478 ft 115 ft Asphalt 109.3 IOR 3
18R -6 179° 10507 ft 115 ft Asphalt 110.3 ILG 3
36L -6 359° 10507 ft 115 ft Asphalt 111.7 IDK 3
36R -6 359° 12478 ft 115 ft Asphalt 109.9 IQU 3

Beijing Capital International Airport, China
Use only for reference purposes



Not for navigational purposes.